Date String (YYYY-MM-DD hh:mm:ss) UTC,Instrument flags,absolute air pressure of the measurement (hPa),sample flow rate (lpm),inlet stack bypass flow (lpm),air temperature of the measurement (°C),ambient temperature measured by the external sensor (°C),aerosol sample conditioner tube jacket temperature (°C),OPC LED temperature (°C),internal box temperature (°C),relative humidity of the measurement (%),span deviation,mass concentration of particles derived from Lorenz-Mie calculation of OPC scattering (μg/m³),mass concentration of particles derived from Lorenz-Mie calculation of OPC scattering (μg/m³),mass concentration of particles derived from Lorenz-Mie calculation of OPC scattering (μg/m³)
DateTimeUTC,F1_M11,P_M11,Q1_M11,Q2_M11,T1_M11,T2_M11,T3_M11,T4_M11,T5_M11,U1_M11,ZSPAN_M11,X0_M11,X2_M11,X1_M11
2023-10-03 22:00:00,SystemResetWarning,0826.9,5.01,000.00,028.6,027.2,000.0,037.0,030.2,12.4,0000.0,0006.08,0001.94,0001.15
2023-10-03 22:01:00,SystemResetWarning,0826.8,5.00,000.00,028.6,027.2,000.0,037.0,030.2,12.3,0000.0,0005.81,0001.92,0001.15
2023-10-03 22:02:00,SystemResetWarning,0826.8,5.00,000.00,028.7,027.3,000.0,037.1,030.3,12.3,0000.0,0005.52,0001.85,0001.14
2023-10-03 22:03:00,SystemResetWarning,0826.9,5.00,000.00,028.7,027.3,000.0,037.1,030.3,12.3,0000.0,0005.27,0001.82,0001.13
2023-10-03 22:04:00,SystemResetWarning,0827.0,5.00,000.00,028.7,027.3,000.0,037.1,030.3,12.5,0000.0,0004.12,0001.82,0001.12
2023-10-03 22:05:00,SystemResetWarning,0827.0,5.01,000.00,028.7,027.3,000.0,037.1,030.3,12.5,0000.0,0003.93,0001.77,0001.12
2023-10-03 22:06:00,SystemResetWarning,0827.0,5.00,000.00,028.7,027.3,000.0,037.1,030.3,12.4,0000.0,0003.73,0001.74,0001.12
2023-10-03 22:07:00,SystemResetWarning,0827.0,4.99,000.00,028.7,027.3,000.0,037.1,030.3,12.5,0000.0,0003.57,0001.70,0001.13
2023-10-03 22:08:00,SystemResetWarning,0826.9,5.00,000.00,028.7,027.4,000.0,037.1,030.3,12.6,0000.0,0003.41,0001.67,0001.13
2023-10-03 22:09:00,SystemResetWarning,0826.8,5.00,000.00,028.7,027.4,000.0,037.1,030.4,12.4,0000.0,0003.47,0001.63,0001.13
2023-10-03 22:10:00,SystemResetWarning,0826.9,5.00,000.00,028.7,027.4,000.0,037.2,030.3,12.4,0000.0,0003.45,0001.63,0001.13
2023-10-03 22:11:00,SystemResetWarning,0827.0,5.00,000.00,028.7,027.4,000.0,037.2,030.4,12.2,0000.0,0003.47,0001.66,0001.14
2023-10-03 22:12:00,SystemResetWarning,0827.0,5.00,000.00,028.7,026.6,000.0,037.2,030.3,12.2,0000.0,0003.51,0001.66,0001.14
2023-10-03 22:13:00,SystemResetWarning,0827.0,5.00,000.00,028.6,024.9,000.0,037.1,030.1,12.1,0000.0,0003.92,0001.68,0001.14
2023-10-03 22:14:00,SystemResetWarning,0827.0,5.01,000.00,028.6,024.4,000.0,037.0,029.9,12.2,0000.0,0003.87,0001.70,0001.14
2023-10-03 22:15:00,SystemResetWarning,0827.0,5.02,000.00,028.4,024.5,000.0,037.0,029.7,12.3,0000.0,0004.32,0001.70,0001.14
2023-10-03 22:16:00,SystemResetWarning,0826.9,4.99,000.00,028.3,024.9,000.0,036.9,029.7,12.5,0000.0,0004.89,0001.70,0001.14
2023-10-03 22:17:00,SystemResetWarning,0826.9,4.99,000.00,028.3,025.2,000.0,036.9,029.7,12.2,0000.0,0005.00,0001.73,0001.15
2023-10-03 22:18:00,SystemResetWarning,0826.9,5.00,000.00,028.3,025.5,000.0,036.9,029.8,12.1,0000.0,0004.92,0001.74,0001.15
2023-10-03 22:19:00,SystemResetWarning,0826.9,5.01,000.00,028.3,025.8,000.0,036.9,029.8,12.1,0000.0,0005.18,0001.74,0001.15
2023-10-03 22:20:00,SystemResetWarning,0826.9,5.00,000.00,028.2,026.0,000.0,036.9,029.8,12.1,0000.0,0005.33,0001.77,0001.16
2023-10-03 22:21:00,SystemResetWarning,0827.0,5.00,000.00,028.2,026.2,000.0,036.9,029.8,12.2,0000.0,0005.40,0001.79,0001.17
2023-10-03 22:22:00,SystemResetWarning,0827.0,4.99,000.00,028.3,026.3,000.0,036.9,029.9,12.2,0000.0,0005.41,0001.75,0001.16
2023-10-03 22:23:00,SystemResetWarning,0827.1,5.00,000.00,028.3,026.5,000.0,036.8,029.9,12.2,0000.0,0005.29,0001.72,0001.14
2023-10-03 22:24:00,SystemResetWarning,0827.0,4.99,000.00,028.3,026.6,000.0,036.8,029.9,12.2,0000.0,0004.89,0001.71,0001.15
2023-10-03 22:25:00,SystemResetWarning,0827.0,5.00,000.00,028.3,026.6,000.0,036.8,029.9,12.2,0000.0,0004.94,0001.71,0001.16
2023-10-03 22:26:00,SystemResetWarning,0827.0,5.00,000.00,028.3,026.7,000.0,036.8,029.9,12.2,0000.0,0004.68,0001.74,0001.18
2023-10-03 22:27:00,SystemResetWarning,0827.0,5.00,000.00,028.3,026.8,000.0,036.8,030.0,12.1,0000.0,0004.14,0001.78,0001.18
2023-10-03 22:28:00,SystemResetWarning,0827.1,5.00,000.00,028.3,026.8,000.0,036.8,029.9,12.2,0000.0,0004.00,0001.75,0001.17
2023-10-03 22:29:00,SystemResetWarning,0827.1,4.99,000.00,028.3,026.9,000.0,036.8,030.0,12.2,0000.0,0004.18,0001.77,0001.16
2023-10-03 22:30:00,SystemResetWarning,0827.1,4.99,000.00,028.4,026.9,000.0,036.8,030.0,12.2,0000.0,0004.13,0001.77,0001.16
2023-10-03 22:31:00,SystemResetWarning,0827.1,5.00,000.00,028.4,026.9,000.0,036.8,030.0,12.4,0000.0,0003.68,0001.71,0001.14
2023-10-03 22:32:00,SystemResetWarning,0827.1,4.99,000.00,028.4,027.0,000.0,036.9,030.0,12.3,0000.0,0004.10,0001.73,0001.14
2023-10-03 22:33:00,SystemResetWarning,0827.1,5.00,000.00,028.4,027.0,000.0,036.9,030.0,12.2,0000.0,0004.12,0001.77,0001.15
2023-10-03 22:34:00,SystemResetWarning,0827.1,5.01,000.00,028.4,027.0,000.0,036.9,030.0,12.2,0000.0,0004.22,0001.83,0001.16
2023-10-03 22:35:00,SystemResetWarning,0827.1,5.01,000.00,028.4,027.0,000.0,036.9,030.1,12.1,0000.0,0004.20,0001.86,0001.17
2023-10-03 22:36:00,SystemResetWarning,0827.2,4.98,000.00,028.4,027.1,000.0,036.9,030.1,12.1,0000.0,0004.17,0001.86,0001.18
2023-10-03 22:37:00,SystemResetWarning,0827.2,4.99,000.00,028.5,027.1,000.0,036.9,030.1,12.1,0000.0,0004.16,0001.86,0001.18
2023-10-03 22:38:00,SystemResetWarning,0827.2,5.01,000.00,028.5,027.1,000.0,036.9,030.1,12.2,0000.0,0004.03,0001.82,0001.17
2023-10-03 22:39:00,SystemResetWarning,0827.1,5.01,000.00,028.5,027.1,000.0,036.9,030.1,12.2,0000.0,0004.04,0001.83,0001.18
2023-10-03 22:40:00,SystemResetWarning,0827.1,4.99,000.00,028.5,027.2,000.0,036.9,030.1,12.2,0000.0,0003.83,0001.78,0001.18
2023-10-03 22:41:00,SystemResetWarning,0827.2,4.99,000.00,028.5,027.2,000.0,036.9,030.2,12.1,0000.0,0003.50,0001.74,0001.20
2023-10-03 22:42:00,SystemResetWarning,0827.1,5.01,000.00,028.6,027.2,000.0,036.9,030.2,12.1,0000.0,0003.53,0001.75,0001.21
2023-10-03 22:43:00,SystemResetWarning,0827.1,5.01,000.00,028.6,027.2,000.0,037.0,030.2,12.0,0000.0,0003.15,0001.75,0001.21
2023-10-03 22:44:00,SystemResetWarning,0827.1,5.01,000.00,028.6,027.2,000.0,037.0,030.2,12.1,0000.0,0002.95,0001.69,0001.21
2023-10-03 22:45:00,SystemResetWarning,0827.2,5.00,000.00,028.6,027.3,000.0,037.0,030.2,11.9,0000.0,0002.93,0001.69,0001.21
2023-10-03 22:46:00,SystemResetWarning,0827.1,5.00,000.00,028.6,027.3,000.0,037.0,030.2,11.9,0000.0,0002.84,0001.64,0001.20
2023-10-03 22:47:00,SystemResetWarning,0827.1,5.00,000.00,028.6,027.3,000.0,037.0,030.2,11.9,0000.0,0003.37,0001.64,0001.19
2023-10-03 22:48:00,SystemResetWarning,0827.1,5.00,000.00,028.6,027.3,000.0,037.0,030.2,12.0,0000.0,0004.41,0001.64,0001.18
2023-10-03 22:49:00,SystemResetWarning,0827.1,5.00,000.00,028.7,027.3,000.0,037.0,030.2,12.0,0000.0,0004.65,0001.69,0001.18
2023-10-03 22:50:00,SystemResetWarning,0827.1,5.01,000.00,028.7,027.3,000.0,037.1,030.3,12.1,0000.0,0007.01,0001.68,0001.17
2023-10-03 22:51:00,SystemResetWarning,0827.1,5.00,000.00,028.7,027.3,000.0,037.1,030.3,12.0,0000.0,0007.01,0001.65,0001.17
2023-10-03 22:52:00,SystemResetWarning,0827.2,5.00,000.00,028.7,027.4,000.0,037.1,030.3,12.0,0000.0,0007.17,0001.65,0001.16
2023-10-03 22:53:00,SystemResetWarning,0827.1,4.99,000.00,028.7,027.4,000.0,037.1,030.3,12.0,0000.0,0007.85,0001.66,0001.14
2023-10-03 22:54:00,SystemResetWarning,0827.1,5.00,000.00,028.7,027.4,000.0,037.1,030.3,12.1,0000.0,0008.74,0001.62,0001.13
2023-10-03 22:55:00,SystemResetWarning,0827.1,5.00,000.00,028.7,027.4,000.0,037.1,030.4,12.0,0000.0,0008.71,0001.63,0001.13
2023-10-03 22:56:00,SystemResetWarning,0827.2,5.01,000.00,028.7,027.4,000.0,037.1,030.4,12.0,0000.0,0008.73,0001.62,0001.12
2023-10-03 22:57:00,SystemResetWarning,0827.1,5.01,000.00,028.8,027.4,000.0,037.1,030.4,12.0,0000.0,0008.74,0001.61,0001.12
2023-10-03 22:58:00,SystemResetWarning,0827.1,5.01,000.00,028.8,027.4,000.0,037.1,030.4,11.9,0000.0,0008.63,0001.61,0001.11
2023-10-03 22:59:00,SystemResetWarning,0827.1,4.99,000.00,028.8,027.4,000.0,037.2,030.4,11.9,0000.0,0007.87,0001.60,0001.11
